Thunderstorms From: 26-05-2018 09:00 Until: 27-05-2018 05:00 warning for: Thunderstorms Level: Yellow info button

Although rather usual in this region, locally or potentially dangerous phenomena are expected. (such as local winds, summer thunderstorms, rising streams or high waves) Be aware and pay attention to the latest weather updates, especially if you carry out activities exposed to weather or close to a stream or shoreline. 


Meteo18 Weather Cam more information Meteo18 Weather Cam


warning for Thunderstorms more information blitzortung!


Rain radar more information rain snow radar


Visit our other weather sites:

Template documentation
and downloads

And another site



Weather Underground History page Text

Daily Summary for January 5, 2018 Units:  Metric    English   Both
« Previous Day
Next Day »
Daily Weekly Monthly Yearly Custom
  High: Low: Average:
Temperature: -17.8 °C -13.3 °C -12.7 °C
Dew Point: -17.8 °C -13.7 °C -13.2 °C
Humidity: Humidity % 90 % 93 %
Wind Speed: 0 km/h 0 km/h 13.5 km/h
Wind Gust: 0 km/h - -
Wind:- - SW
Pressure: 0 hPa 33937.9 hPa -
Precipitation: 154.94 mm    
Historical Graphs
 
 
Tabular Data for January 5, 2018
Time Temperature Dew Point Pressure Wind Wind Speed Wind Gust Humidity Rainfall Rate (Hourly)
-17.8 °C -17.8 °C 0 hPa Calm     Humidity % 0 mm
00:03 -12.7 °C -13.4 °C 34144.4 hPa WSW 7.6 km/h 18.2 km/h 91 % 0 mm
00:09 -12.7 °C -13.5 °C 34130.9 hPa WSW 23 km/h 31.1 km/h 91 % 0 mm
00:15 -12.7 °C -13.5 °C 34130.9 hPa West 17.9 km/h 25.9 km/h 91 % 0 mm
00:21 -12.7 °C -13.5 °C 34144.4 hPa WSW 10.3 km/h 18.2 km/h 91 % 0 mm
00:23 -12.7 °C -13.5 °C 34144.4 hPa WSW 10.3 km/h 15.6 km/h 91 % 0 mm
00:25 -12.7 °C -13.5 °C 34144.4 hPa WSW 12.7 km/h 23.3 km/h 91 % 0 mm
00:31 -12.7 °C -13.4 °C 34130.9 hPa SW 17.9 km/h 20.8 km/h 92 % 0 mm
00:37 -12.8 °C -13.4 °C 34120.7 hPa SW 17.9 km/h 23.3 km/h 92 % 0 mm
00:43 -12.8 °C -13.4 °C 34130.9 hPa SW 15.6 km/h 18.2 km/h 92 % 0 mm
00:49 -12.8 °C -13.4 °C 34130.9 hPa SSW 17.9 km/h 25.9 km/h 93 % 0 mm
00:55 -12.8 °C -13.4 °C 34120.7 hPa SW 10.3 km/h 20.8 km/h 93 % 0 mm
01:04 -12.8 °C -13.4 °C 34120.7 hPa WSW 10.3 km/h 20.8 km/h 93 % 0 mm
01:09 -12.8 °C -13.4 °C 34120.7 hPa SW 33.6 km/h 33.6 km/h 93 % 0 mm
01:17 -12.8 °C -13.4 °C 34120.7 hPa WSW 28.5 km/h 28.5 km/h 93 % 0 mm
01:24 -12.8 °C -13.4 °C 34107.2 hPa SSW 17.9 km/h 20.8 km/h 93 % 0 mm
01:32 -12.8 °C -13.4 °C 34107.2 hPa SW 15.6 km/h 23.3 km/h 93 % 0 mm
01:38 -12.9 °C -13.5 °C 34097 hPa SSW 17.9 km/h 28.5 km/h 93 % 0 mm
01:44 -12.9 °C -13.4 °C 34097 hPa SSW 17.9 km/h 20.8 km/h 94 % 0 mm
01:52 -13 °C -13.5 °C 34097 hPa SSW 12.7 km/h 28.5 km/h 94 % 0 mm
01:58 -13.1 °C -13.6 °C 34097 hPa SSW 15.6 km/h 25.9 km/h 94 % 0 mm
02:00 -13.1 °C -13.6 °C 34097 hPa SSW 17.9 km/h 31.1 km/h 94 % 0 mm
02:06 -13.1 °C -13.6 °C 34097 hPa SSW 17.9 km/h 28.5 km/h 95 % 0 mm
02:10 -13.1 °C -13.6 °C 34086.9 hPa SSW 26.2 km/h 26.2 km/h 95 % 0 mm
02:22 -13 °C -13.4 °C 34073.3 hPa SW 17.9 km/h 28.5 km/h 95 % 0 mm
02:28 -12.9 °C -13.4 °C 34073.3 hPa SSW 15.6 km/h 33.6 km/h 95 % 0 mm
02:34 -12.9 °C -13.3 °C 34073.3 hPa SSW 17.9 km/h 31.1 km/h 95 % 0 mm
02:40 -12.8 °C -13.3 °C 34073.3 hPa SSW 15.6 km/h 33.6 km/h 95 % 0 mm
02:46 -12.8 °C -13.2 °C 34073.3 hPa SW 20.9 km/h 31.1 km/h 95 % 0 mm
02:52 -12.7 °C -13.2 °C 34073.3 hPa SW 20.9 km/h 33.6 km/h 95 % 0 mm
03:00 -12.6 °C -13.1 °C 34063.2 hPa South 23 km/h 31.1 km/h 94 % 0 mm
03:10 -12.6 °C -13.1 °C 34063.2 hPa SW 17.9 km/h 33.6 km/h 94 % 0 mm
03:16 -12.6 °C -13.1 °C 34063.2 hPa South 20.9 km/h 31.1 km/h 94 % 0 mm
03:24 -12.5 °C -13 °C 34049.6 hPa SSW 15.6 km/h 25.9 km/h 94 % 0 mm
03:26 -12.5 °C -13 °C 34049.6 hPa SW 23 km/h 33.6 km/h 94 % 0 mm
03:30 -12.4 °C -12.9 °C 34049.6 hPa SSW 12.7 km/h 31.1 km/h 94 % 0 mm
03:36 -12.4 °C -12.9 °C 34049.6 hPa WSW 23 km/h 23.3 km/h 94 % 0 mm
03:40 -12.5 °C -13 °C 34049.6 hPa SSW 20.9 km/h 23.3 km/h 94 % 0 mm
03:46 -12.6 °C -13.1 °C 34049.6 hPa SSW 5.1 km/h 18.2 km/h 94 % 0 mm
03:54 -12.6 °C -13.1 °C 34049.6 hPa SSE 5.1 km/h 15.6 km/h 94 % 0 mm
03:56 -12.6 °C -13.1 °C 34049.6 hPa SSE 5.1 km/h 15.6 km/h 95 % 0 mm
04:00 -12.6 °C -13.1 °C 34049.6 hPa SSW 5.1 km/h 15.6 km/h 95 % 0 mm
04:02 -12.6 °C -13.1 °C 34049.6 hPa SSW 10.3 km/h 15.6 km/h 95 % 0 mm
04:08 -12.6 °C -13.1 °C 34039.5 hPa SE 10.3 km/h 15.6 km/h 95 % 0 mm
04:14 -12.7 °C -13.1 °C 34039.5 hPa South 10.3 km/h 15.6 km/h 95 % 0 mm
04:22 -12.7 °C -13.1 °C 34029.3 hPa SSE 10.3 km/h 18.2 km/h 95 % 0 mm
04:34 -12.7 °C -13.1 °C 34015.8 hPa South 7.6 km/h 18.2 km/h 95 % 0 mm
04:38 -12.7 °C -13.1 °C 34015.8 hPa SSW 5.1 km/h 20.8 km/h 95 % 0 mm
04:40 -12.7 °C -13.1 °C 34015.8 hPa SSE 7.6 km/h 12.9 km/h 95 % 0 mm
04:46 -12.7 °C -13.2 °C 34015.8 hPa SSW 10.3 km/h 12.9 km/h 95 % 0 mm
04:54 -12.7 °C -13.1 °C 34015.8 hPa ESE 10.3 km/h 15.6 km/h 95 % 0 mm
05:02 -12.7 °C -13.1 °C 34005.6 hPa South 5.1 km/h 15.6 km/h 95 % 0 mm
05:10 -12.7 °C -13.1 °C 34005.6 hPa SSW 7.6 km/h 12.9 km/h 95 % 0 mm
05:16 -12.7 °C -13.1 °C 33992.1 hPa South 7.6 km/h 12.9 km/h 95 % 0 mm
05:24 -12.6 °C -13.1 °C 33992.1 hPa SW 5.1 km/h 15.6 km/h 95 % 0 mm
05:31 -12.6 °C -13.1 °C 33992.1 hPa SSW 7.6 km/h 18.2 km/h 95 % 0 mm
05:36 -12.6 °C -13 °C 33992.1 hPa SSW 5.1 km/h 12.9 km/h 95 % 0 mm
05:43 -12.6 °C -13 °C 33992.1 hPa SSE 12.7 km/h 12.9 km/h 95 % 0 mm
05:50 -12.6 °C -13 °C 33992.1 hPa South 7.6 km/h 18.2 km/h 95 % 0 mm
06:00 -12.4 °C -12.9 °C 33992.1 hPa South 17.9 km/h 20.8 km/h 95 % 0 mm
06:06 -12.4 °C -12.9 °C 33981.9 hPa South 12.7 km/h 20.8 km/h 94 % 0 mm
06:12 -12.4 °C -12.9 °C 33971.7 hPa SSW 10.3 km/h 20.8 km/h 94 % 0 mm
06:18 -12.4 °C -12.9 °C 33971.7 hPa SSW 5.1 km/h 12.9 km/h 94 % 0 mm
06:24 -12.4 °C -12.9 °C 33971.7 hPa SSE 15.6 km/h 25.9 km/h 94 % 0 mm
06:30 -12.4 °C -12.9 °C 33971.7 hPa SSW 12.7 km/h 18.2 km/h 94 % 0 mm
06:36 -12.5 °C -12.9 °C 33971.7 hPa South 12.7 km/h 18.2 km/h 95 % 0 mm
06:44 -12.4 °C -12.9 °C 33971.7 hPa SW 15.6 km/h 25.9 km/h 95 % 0 mm
06:52 -12.4 °C -12.8 °C 33958.2 hPa SSW 12.7 km/h 25.9 km/h 95 % 0 mm
06:56 -12.4 °C -12.7 °C 33958.2 hPa SSW 12.7 km/h 23.3 km/h 96 % 0 mm
06:58 -12.3 °C -12.7 °C 33958.2 hPa SSW 12.7 km/h 25.9 km/h 96 % 0 mm
07:04 -12.3 °C -12.7 °C 33958.2 hPa SSW 17.9 km/h 25.9 km/h 96 % 0 mm
07:10 -12.4 °C -12.7 °C 33958.2 hPa SW 23 km/h 23.3 km/h 96 % 0 mm
07:14 -12.4 °C -12.7 °C 33948 hPa SSW 10.3 km/h 20.8 km/h 96 % 0 mm
07:16 -12.4 °C -12.7 °C 33948 hPa South 7.6 km/h 15.6 km/h 96 % 0 mm
07:24 -12.4 °C -12.7 °C 33948 hPa SSE 12.7 km/h 18.2 km/h 96 % 0 mm
07:32 -12.4 °C -12.7 °C 33948 hPa SSW 5.1 km/h 15.6 km/h 96 % 0 mm
07:38 -12.4 °C -12.7 °C 33948 hPa SSW 10.3 km/h 15.6 km/h 96 % 0 mm
07:44 -12.4 °C -12.7 °C 33948 hPa SSE 7.6 km/h 12.9 km/h 96 % 0 mm
07:50 -12.4 °C -12.7 °C 33948 hPa SSW 12.7 km/h 18.2 km/h 96 % 0 mm
07:58 -12.4 °C -12.7 °C 33948 hPa SSW 12.7 km/h 18.2 km/h 97 % 7.62 mm
08:04 -12.4 °C -12.7 °C 33948 hPa SW 10.3 km/h 18.2 km/h 97 % 7.62 mm
08:12 -12.4 °C -12.7 °C 33948 hPa SW 10.3 km/h 23.3 km/h 97 % 12.7 mm
08:18 -12.3 °C -12.6 °C 33948 hPa SSW 17.9 km/h 28.5 km/h 97 % 12.7 mm
08:24 -12.3 °C -12.6 °C 33937.9 hPa SSW 10.3 km/h 20.8 km/h 97 % 12.7 mm
08:30 -12.3 °C -12.6 °C 33937.9 hPa SSW 12.7 km/h 25.9 km/h 97 % 12.7 mm
08:36 -12.3 °C -12.6 °C 33937.9 hPa South 23 km/h 28.5 km/h 97 % 12.7 mm
08:44 -12.3 °C -12.6 °C 33937.9 hPa SSW 26.2 km/h 33.6 km/h 97 % 12.7 mm
08:50 -12.2 °C -12.5 °C 33937.9 hPa SSW 20.9 km/h 31.1 km/h 97 % 20.32 mm
08:56 -12.2 °C -12.5 °C 33948 hPa SW 15.6 km/h 25.9 km/h 97 % 25.4 mm
09:02 -12.2 °C -12.4 °C 33937.9 hPa SSW 17.9 km/h 25.9 km/h 97 % 20.32 mm
09:08 -12.2 °C -12.4 °C 33937.9 hPa SSW 17.9 km/h 31.1 km/h 97 % 25.4 mm
09:10 -12.2 °C -12.4 °C 33937.9 hPa SW 28.5 km/h 28.5 km/h 97 % 20.32 mm
09:16 -12.2 °C -12.4 °C 33937.9 hPa SW 12.7 km/h 25.9 km/h 97 % 25.4 mm
09:22 -12.2 °C -12.4 °C 33937.9 hPa SW 17.9 km/h 25.9 km/h 97 % 20.32 mm
09:28 -12.1 °C -12.4 °C 33948 hPa SW 20.9 km/h 20.9 km/h 97 % 25.4 mm
09:38 -12.1 °C -12.3 °C 33948 hPa SW 20.9 km/h 28.5 km/h 97 % 38.1 mm
09:46 -12.1 °C -12.3 °C 33958.2 hPa West 20.9 km/h 25.9 km/h 97 % 45.72 mm
09:58 -12.3 °C -12.8 °C 33958.2 hPa West 26.2 km/h 57 km/h 94 % 58.42 mm
10:04 -12.3 °C -13 °C 33958.2 hPa West 20.9 km/h 33.6 km/h 92 % 58.42 mm
10:10 -12.3 °C -13.1 °C 33958.2 hPa West 28.5 km/h 38.8 km/h 91 % 58.42 mm
10:13 -12.3 °C -13.1 °C 33958.2 hPa West 28.5 km/h 33.6 km/h 91 % 58.42 mm
10:18 -12.3 °C -13.2 °C 33958.2 hPa West 12.7 km/h 28.5 km/h 90 % 58.42 mm
10:28 -12.3 °C -13.2 °C 33958.2 hPa WNW 15.6 km/h 15.6 km/h 90 % 50.8 mm
10:40 -12.3 °C -13.2 °C 33958.2 hPa WNW 5.1 km/h 12.9 km/h 90 % 38.1 mm
10:46 -12.3 °C -13.2 °C 33971.7 hPa SW 5.1 km/h 12.9 km/h 90 % 33.02 mm
10:52 -12.3 °C -13.2 °C 33971.7 hPa West 7.6 km/h 15.6 km/h 90 % 20.32 mm
11:02 -12.3 °C -13.1 °C 33971.7 hPa West 5.1 km/h 10.3 km/h 91 % 12.7 mm
11:06 -12.3 °C -13 °C 33981.9 hPa SW 10.3 km/h 10.3 km/h 92 % 12.7 mm
11:08 -12.3 °C -13 °C 33981.9 hPa NW 5.1 km/h 15.6 km/h 92 % 12.7 mm
11:14 -12.3 °C -13 °C 33981.9 hPa West 17.9 km/h 25.9 km/h 92 % 12.7 mm
11:21 -12.3 °C -12.9 °C 33992.1 hPa West 10.3 km/h 23.3 km/h 92 % 12.7 mm
11:28 -12.3 °C -12.9 °C 33992.1 hPa WSW 10.3 km/h 23.3 km/h 93 % 12.7 mm
11:34 -12.3 °C -12.9 °C 33992.1 hPa WSW 10.3 km/h 18.2 km/h 93 % 12.7 mm
11:41 -12.3 °C -12.9 °C 33992.1 hPa WSW 12.7 km/h 28.5 km/h 93 % 20.32 mm
11:49 -12.3 °C -12.9 °C 33992.1 hPa WSW 28.5 km/h 28.5 km/h 93 % 20.32 mm
11:55 -12.3 °C -12.9 °C 33992.1 hPa WSW 10.3 km/h 20.8 km/h 93 % 20.32 mm
12:01 -12.3 °C -12.9 °C 33981.9 hPa SW 12.7 km/h 31.1 km/h 93 % 12.7 mm
12:07 -12.3 °C -13 °C 33981.9 hPa WSW 23 km/h 25.9 km/h 92 % 12.7 mm
12:13 -12.3 °C -13 °C 33981.9 hPa SW 10.3 km/h 33.6 km/h 92 % 20.32 mm
12:15 -12.3 °C -12.9 °C 33981.9 hPa WSW 26.2 km/h 26.2 km/h 93 % 20.32 mm
12:19 -12.4 °C -13 °C 33981.9 hPa SW 17.9 km/h 23.3 km/h 93 % 20.32 mm
12:25 -12.4 °C -13.1 °C 33971.7 hPa SSW 28.5 km/h 36.2 km/h 92 % 20.32 mm
12:31 -12.4 °C -13 °C 33971.7 hPa SW 28.5 km/h 31.1 km/h 93 % 12.7 mm
12:37 -12.4 °C -13.1 °C 33958.2 hPa SW 28.5 km/h 36.2 km/h 92 % 12.7 mm
12:43 -12.5 °C -13.2 °C 33958.2 hPa SSW 17.9 km/h 33.6 km/h 92 % 12.7 mm
12:49 -12.6 °C -13.2 °C 33958.2 hPa SW 28.5 km/h 36.2 km/h 92 % 7.62 mm
12:57 -12.6 °C -13.2 °C 33948 hPa SSW 28.5 km/h 33.6 km/h 92 % 7.62 mm
13:03 -12.6 °C -13.4 °C 33948 hPa SSW 17.9 km/h 36.2 km/h 91 % 7.62 mm
13:09 -12.6 °C -13.4 °C 33958.2 hPa SSW 15.6 km/h 36.2 km/h 91 % 0 mm
13:11 -12.6 °C -13.4 °C 33958.2 hPa SW 31.4 km/h 38.8 km/h 91 % 0 mm
13:20 -12.6 °C -13.5 °C 33958.2 hPa SW 12.7 km/h 28.5 km/h 90 % 0 mm
13:29 -12.6 °C -13.5 °C 33971.7 hPa SW 12.7 km/h 23.3 km/h 90 % 0 mm
13:33 -12.6 °C -13.5 °C 33958.2 hPa WSW 7.6 km/h 23.3 km/h 90 % 0 mm
13:45 -12.6 °C -13.4 °C 33958.2 hPa WSW 28.5 km/h 33.6 km/h 91 % 0 mm
13:53 -12.6 °C -13.3 °C 33958.2 hPa SW 12.7 km/h 18.2 km/h 92 % 0 mm
13:59 -12.6 °C -13.3 °C 33958.2 hPa SW 12.7 km/h 23.3 km/h 92 % 0 mm
14:03 -12.6 °C -13.2 °C 33958.2 hPa SW 10.3 km/h 20.8 km/h 92 % 0 mm
14:09 -12.6 °C -13.2 °C 33958.2 hPa SSW 12.7 km/h 31.1 km/h 92 % 0 mm
14:15 -12.5 °C -13.1 °C 33971.7 hPa SW 7.6 km/h 15.6 km/h 93 % 0 mm
14:21 -12.5 °C -13.2 °C 33971.7 hPa SW 15.6 km/h 25.9 km/h 92 % 0 mm
14:27 -12.5 °C -13.2 °C 33971.7 hPa SSW 5.1 km/h 28.5 km/h 92 % 0 mm
14:33 -12.4 °C -13.1 °C 33971.7 hPa West 20.9 km/h 33.6 km/h 92 % 0 mm
14:43 -12.4 °C -13.1 °C 33971.7 hPa SW 10.3 km/h 25.9 km/h 92 % 0 mm
14:49 -12.4 °C -13.1 °C 33971.7 hPa SW 26.2 km/h 41.4 km/h 92 % 0 mm
14:55 -12.4 °C -13.1 °C 33971.7 hPa South 12.7 km/h 23.3 km/h 92 % 0 mm
15:01 -12.4 °C -13.1 °C 33971.7 hPa SW 20.9 km/h 23.3 km/h 92 % 0 mm
15:03 -12.4 °C -13.1 °C 33971.7 hPa SSW 20.9 km/h 31.1 km/h 92 % 0 mm
15:09 -12.4 °C -13.1 °C 33981.9 hPa WSW 15.6 km/h 23.3 km/h 92 % 0 mm
15:15 -12.4 °C -13.1 °C 33981.9 hPa SSW 15.6 km/h 23.3 km/h 92 % 0 mm
15:21 -12.4 °C -13.1 °C 33981.9 hPa WSW 7.6 km/h 23.3 km/h 92 % 0 mm
15:29 -12.4 °C -13.1 °C 33981.9 hPa SW 10.3 km/h 25.9 km/h 92 % 0 mm
15:33 -12.4 °C -13.1 °C 33981.9 hPa WSW 15.6 km/h 20.8 km/h 92 % 0 mm
15:35 -12.4 °C -13.1 °C 33981.9 hPa SW 17.9 km/h 18.2 km/h 92 % 0 mm
15:41 -12.4 °C -13.1 °C 33981.9 hPa SW 17.9 km/h 28.5 km/h 92 % 0 mm
15:47 -12.4 °C -13.1 °C 33992.1 hPa SSW 7.6 km/h 18.2 km/h 92 % 0 mm
15:53 -12.4 °C -13.1 °C 33981.9 hPa SW 12.7 km/h 20.8 km/h 92 % 0 mm
15:59 -12.4 °C -13.1 °C 33981.9 hPa SW 15.6 km/h 23.3 km/h 92 % 0 mm
16:05 -12.5 °C -13.1 °C 33981.9 hPa SW 20.9 km/h 23.3 km/h 93 % 0 mm
16:11 -12.5 °C -13.1 °C 33992.1 hPa West 5.1 km/h 18.2 km/h 93 % 0 mm
16:19 -12.6 °C -13.2 °C 33992.1 hPa SW 7.6 km/h 20.8 km/h 92 % 0 mm
16:25 -12.6 °C -13.2 °C 33981.9 hPa SW 7.6 km/h 15.6 km/h 92 % 0 mm
16:33 -12.6 °C -13.2 °C 33981.9 hPa SW 15.6 km/h 23.3 km/h 92 % 0 mm
16:39 -12.6 °C -13.3 °C 33981.9 hPa SW 17.9 km/h 28.5 km/h 91 % 0 mm
16:47 -12.6 °C -13.3 °C 33981.9 hPa SW 12.7 km/h 31.1 km/h 91 % 0 mm
16:59 -12.6 °C -13.4 °C 33981.9 hPa SW 7.6 km/h 25.9 km/h 90 % 0 mm
17:08 -12.6 °C -13.4 °C 33981.9 hPa WSW 20.9 km/h 20.9 km/h 90 % 0 mm
17:09 -12.6 °C -13.5 °C 33992.1 hPa SW 10.3 km/h 15.6 km/h 90 % 0 mm
17:15 -12.6 °C -13.5 °C 33981.9 hPa SW 12.7 km/h 20.8 km/h 90 % 0 mm
17:21 -12.6 °C -13.5 °C 33981.9 hPa SSW 10.3 km/h 18.2 km/h 90 % 0 mm
17:27 -12.7 °C -13.4 °C 33981.9 hPa SW 17.9 km/h 20.8 km/h 91 % 0 mm
17:35 -12.7 °C -13.5 °C 33992.1 hPa SW 12.7 km/h 15.6 km/h 91 % 0 mm
17:41 -12.7 °C -13.5 °C 33992.1 hPa SW 15.6 km/h 23.3 km/h 91 % 0 mm
17:50 -12.7 °C -13.5 °C 33992.1 hPa SW 20.9 km/h 20.9 km/h 91 % 0 mm
17:53 -12.7 °C -13.5 °C 33992.1 hPa SSW 10.3 km/h 18.2 km/h 91 % 0 mm
18:03 -12.8 °C -13.5 °C 33992.1 hPa SW 5.1 km/h 15.6 km/h 92 % 0 mm
18:05 -12.8 °C -13.5 °C 33992.1 hPa SSW 12.7 km/h 18.2 km/h 92 % 0 mm
18:09 -12.8 °C -13.5 °C 33992.1 hPa SW 10.3 km/h 18.2 km/h 92 % 0 mm
18:11 -12.8 °C -13.5 °C 33992.1 hPa SW 12.7 km/h 18.2 km/h 92 % 0 mm
18:17 -12.8 °C -13.5 °C 33992.1 hPa WSW 12.7 km/h 20.8 km/h 92 % 0 mm
18:21 -12.8 °C -13.5 °C 33992.1 hPa SW 7.6 km/h 23.3 km/h 92 % 0 mm
18:25 -12.8 °C -13.5 °C 33992.1 hPa SSW 10.3 km/h 18.2 km/h 92 % 0 mm
18:33 -12.8 °C -13.5 °C 33992.1 hPa SSW 7.6 km/h 15.6 km/h 92 % 0 mm
18:43 -12.9 °C -13.5 °C 33992.1 hPa SW 12.7 km/h 18.2 km/h 93 % 0 mm
18:53 -12.9 °C -13.5 °C 33992.1 hPa SSW 15.6 km/h 15.6 km/h 93 % 0 mm
19:01 -12.9 °C -13.5 °C 33992.1 hPa SSW 10.3 km/h 18.2 km/h 93 % 0 mm
19:09 -12.9 °C -13.5 °C 33992.1 hPa SW 12.7 km/h 20.8 km/h 93 % 0 mm
19:15 -12.9 °C -13.5 °C 34005.6 hPa SW 17.9 km/h 25.9 km/h 93 % 0 mm
19:23 -12.8 °C -13.4 °C 34005.6 hPa SW 20.9 km/h 28.5 km/h 93 % 0 mm
19:29 -12.9 °C -13.5 °C 34005.6 hPa SW 10.3 km/h 20.8 km/h 93 % 0 mm
19:43 -13 °C -13.5 °C 34005.6 hPa WSW 5.1 km/h 12.9 km/h 94 % 0 mm
19:45 -13.1 °C -13.6 °C 34005.6 hPa WSW 7.6 km/h 12.9 km/h 94 % 0 mm
19:49 -13.1 °C -13.6 °C 34005.6 hPa WSW 7.6 km/h 15.6 km/h 94 % 0 mm
19:55 -13.1 °C -13.6 °C 34015.8 hPa SW 10.3 km/h 15.6 km/h 94 % 0 mm
19:57 -13.1 °C -13.6 °C 34015.8 hPa WSW 7.6 km/h 10.3 km/h 94 % 0 mm
20:01 -13.1 °C -13.6 °C 34015.8 hPa WSW 15.6 km/h 15.6 km/h 95 % 7.62 mm
20:09 -13.1 °C -13.6 °C 34015.8 hPa West 10.3 km/h 10.3 km/h 95 % 7.62 mm
20:13 -13.1 °C -13.6 °C 34015.8 hPa WSW 7.6 km/h 15.6 km/h 95 % 7.62 mm
20:20 -13.1 °C -13.6 °C 34005.6 hPa West 5.1 km/h 15.6 km/h 95 % 7.62 mm
20:27 -13.2 °C -13.5 °C 34015.8 hPa SW 7.6 km/h 20.8 km/h 96 % 12.7 mm
20:35 -13.2 °C -13.5 °C 34015.8 hPa SSW 12.7 km/h 20.8 km/h 96 % 12.7 mm
20:43 -13.2 °C -13.5 °C 34015.8 hPa SSW 12.7 km/h 20.8 km/h 96 % 12.7 mm
20:50 -13.2 °C -13.5 °C 34015.8 hPa SW 5.1 km/h 12.9 km/h 96 % 12.7 mm
20:55 -13.2 °C -13.6 °C 34015.8 hPa SW 10.3 km/h 15.6 km/h 96 % 12.7 mm
21:03 -13.2 °C -13.6 °C 34015.8 hPa SW 7.6 km/h 12.9 km/h 96 % 7.62 mm
21:10 -13.2 °C -13.6 °C 34015.8 hPa WSW 7.6 km/h 12.9 km/h 96 % 7.62 mm
21:16 -13.2 °C -13.6 °C 34015.8 hPa SW 7.6 km/h 10.3 km/h 96 % 12.7 mm
21:22 -13.2 °C -13.6 °C 34005.6 hPa SSW 7.6 km/h 10.3 km/h 96 % 12.7 mm
21:24 -13.2 °C -13.6 °C 34005.6 hPa SSW 5.1 km/h 10.3 km/h 96 % 12.7 mm
21:32 -13.2 °C -13.6 °C 34005.6 hPa SSW 5.1 km/h 7.7 km/h 96 % 7.62 mm
21:38 -13.2 °C -13.6 °C 34005.6 hPa SSW 7.6 km/h 12.9 km/h 96 % 12.7 mm
21:46 -13.2 °C -13.6 °C 34015.8 hPa SSW 5.1 km/h 12.9 km/h 96 % 12.7 mm
21:48 -13.2 °C -13.6 °C 34015.8 hPa South 10.3 km/h 10.3 km/h 96 % 12.7 mm
21:54 -13.2 °C -13.6 °C 34015.8 hPa SSW 12.7 km/h 15.6 km/h 96 % 12.7 mm
21:58 -13.2 °C -13.6 °C 34015.8 hPa SSW 7.6 km/h 15.6 km/h 96 % 12.7 mm
22:00 -13.2 °C -13.6 °C 34015.8 hPa SW 12.7 km/h 18.2 km/h 96 % 12.7 mm
22:06 -13.2 °C -13.6 °C 34015.8 hPa SSW 7.6 km/h 15.6 km/h 96 % 12.7 mm
22:12 -13.2 °C -13.6 °C 34015.8 hPa SW 20.9 km/h 20.9 km/h 96 % 12.7 mm
22:18 -13.2 °C -13.6 °C 34015.8 hPa SW 17.9 km/h 28.5 km/h 96 % 7.62 mm
22:24 -13.2 °C -13.7 °C 34015.8 hPa SW 17.9 km/h 20.8 km/h 95 % 7.62 mm
22:30 -13.2 °C -13.7 °C 34015.8 hPa SSW 15.6 km/h 23.3 km/h 95 % 7.62 mm
22:42 -13.2 °C -13.7 °C 34015.8 hPa SSW 5.1 km/h 15.6 km/h 95 % 0 mm
22:50 -13.2 °C -13.6 °C 34015.8 hPa WSW 12.7 km/h 12.9 km/h 95 % 0 mm
22:56 -13.2 °C -13.6 °C 34015.8 hPa WSW 7.6 km/h 23.3 km/h 95 % 0 mm
23:02 -13.2 °C -13.6 °C 34015.8 hPa WSW 7.6 km/h 20.8 km/h 95 % 12.7 mm
23:08 -13.2 °C -13.7 °C 34015.8 hPa WSW 7.6 km/h 10.3 km/h 95 % 12.7 mm
23:14 -13.2 °C -13.6 °C 34015.8 hPa Calm   7.7 km/h 96 % 12.7 mm
23:20 -13.2 °C -13.6 °C 34015.8 hPa WSW 5.1 km/h 10.3 km/h 96 % 12.7 mm
23:26 -13.2 °C -13.6 °C 34015.8 hPa SW 10.3 km/h 10.3 km/h 96 % 12.7 mm
23:32 -13.2 °C -13.6 °C 34015.8 hPa SW 2.3 km/h 7.7 km/h 96 % 12.7 mm
23:42 -13.2 °C -13.6 °C 34029.3 hPa SSW 2.3 km/h 12.9 km/h 96 % 12.7 mm
23:50 -13.2 °C -13.6 °C 34015.8 hPa SSW 7.6 km/h 7.7 km/h 96 % 12.7 mm
23:56 -13.3 °C -13.6 °C 34015.8 hPa Calm   5.1 km/h 96 % 12.7 mm
Meteo18
Compliments of Weather Underground - 4 mb

Script developed by  Jim McMurry - jmcmurry@mwt.net Adapted for the template by  Wim van der Kuil - Leuven-Template.eu

You find our weather info also at:

European Weather Network

Weather Underground

Equipment we use:

Weather-station
Davis Vue

Weather-program
Meteobridge

Weather-server
Raspberry PI 2 B+

Provider
1 and 1

Davis Vue

Meteobridge

Raspberry PI 2 B+

1 and 1